Location: Aurora Center
(43.5271°N, 98.5894°W)
Time: 00:42:43
(UTC-05:00)

BlueWalker 3 - Pass Details

Date: 24 June 2024
Orbit: 480 x 492 km, 53.2° (Epoch: 15 July)

Event Time Altitude Azimuth Distance (km) Brightness Sun altitude
Rises 01:50:00 0° 307° (NW) 2,539 6.0 -23.0°
Reaches altitude 10° 01:52:20 10° 318° (NW) 1,658 5.1 -23.0°
Maximum altitude 01:55:42 31° 23° (NNE) 855 3.7 -22.9°
Drops below altitude 10° 01:59:05 10° 87° (E) 1,653 4.6 -22.9°
Enters shadow 02:00:25 - 95° (E) 2,149 5.2 -22.9°
